Regional Weather Roundup
Issued by NWS

Home | Current Version | Previous Version | Text Only | Print | Product List | Glossary On
Versions: 1 2 3 4 5 6 7 8 9 10 11 12 13 14 15 16 17 18 19 20 21 22 23 24 25 26 27 28 29 30 31 32 33 34 35 36 37 38 39 40 41 42 43 44 45 46 47 48 49 50
000
ASUS43 KMPX 291510
RWRMN
WEATHER ROUNDUP FOR MINNESOTA
NATIONAL WEATHER SERVICE TWIN CITIES/CHANHASSEN MN
1000 AM CDT WED MAR 29 2017


NOTE: "FAIR" INDICATES FEW OR NO CLOUDS BELOW 12,000 FEET WITH NO
SIGNIFICANT WEATHER AND/OR OBSTRUCTIONS TO VISIBILITY. N/A MEANS
CURRENT SKY AND/OR WEATHER CONDITIONS ARE NOT AVAILABLE.

MNZ060>063-068>070-291600-
   Twin Cities Metro

CITY           SKY/WX    TMP DP  RH WIND       PRES   REMARKS
TWIN CITIES    CLOUDY    49  33  54 SE8       30.24S
ST PAUL        PTSUNNY   48  35  60 SE5       30.26S
CRYSTAL        CLOUDY    45  32  60 CALM      30.23S
BLAINE         CLOUDY    43  34  70 NE3       30.25R
LAKEVILLE      CLOUDY    43  37  81 E3        30.24R
EDEN PRAIRIE   CLOUDY    49  34  56 SE8       30.23S
SOUTH ST PAUL  CLOUDY    47  34  59 CALM      30.24S
LAKE ELMO      FAIR      46  36  66 E3        30.25F
$$
MNZ001>005-007-008-013>017-022>024-027-028-291600-
   Northwest Minnesota

CITY           SKY/WX    TMP DP  RH WIND       PRES   REMARKS
BEMIDJI        CLOUDY    38  29  70 SE10      30.22S
HALLOCK        SUNNY     39  34  81 SE5       30.15F
ROSEAU         MOSUNNY   43  34  70 SE6       30.18F
WARROAD        CLOUDY    39  32  75 E5        30.20S
THIEF RVR FALL CLOUDY    40  32  73 SE8       30.18F
CROOKSTON      CLOUDY    41  36  81 S3        30.18S
FOSSTON        CLOUDY    41  30  65 SE9       30.18F
DETROIT LAKES  CLOUDY    41  30  65 SE10      30.20S
MOORHEAD       CLOUDY    41  36  81 CALM      30.19S
PARK RAPIDS    CLOUDY    40  27  59 SE5       30.21S
MAHNOMEN       FAIR      44  32  63 SE9       30.18S
$$
MNZ006-009>011-018-025>026-291600-
   North Central Minnesota

CITY           SKY/WX    TMP DP  RH WIND       PRES   REMARKS
BAUDETTE       CLOUDY    38  27  64 SE8       30.21F
FLAG ISLAND    SUNNY     36  27  69 SE8       30.21S
INTL FALLS     CLOUDY    37  26  64 SE9       30.26F
WASKISH        CLOUDY    41  30  65 SE7       30.22S
BIG FORK       CLOUDY    39  27  60 SE3       30.25S
LONGVILLE      CLOUDY    37  28  70 E5        30.24S
GRAND RAPIDS   CLOUDY    35  26  69 SE8       30.28S WCI  29
CRANE LAKE     CLOUDY    36  25  64 SE3       30.31S
ORR            CLOUDY    36  21  55 CALM      30.25S
COOK           CLOUDY    36  25  64 E5        30.28S
WALKER         FAIR      35  29  76 CALM      30.23S
$$
MNZ012-019>021-037-291600-
   Northeast Minnesota

CITY           SKY/WX    TMP DP  RH WIND       PRES   REMARKS
DULUTH         CLOUDY    35  29  78 E15G24    30.30R WCI  25
ELY            CLOUDY    36  25  64 SE7       30.29F
HIBBING        CLOUDY    34  28  79 E8        30.27F WCI  27
EVELETH        CLOUDY    37  24  58 E7        30.29S
DULUTH HARBOR  CLOUDY    36  34  93 NE20      30.35R
TWO HARBORS    CLOUDY    37  30  75 E15       30.31S
GRAND MARAIS     N/A     35  28  75 NE14G21   30.39F WCI  26
G MARAIS ARPRT CLOUDY    30  19  64 E5        30.34S WCI  25
$$
MNZ029>031-032-039>041-046>048-054>057-064-291600-
   West Central Minnesota

CITY           SKY/WX    TMP DP  RH WIND       PRES   REMARKS
FERGUS FALLS   CLOUDY    46  30  53 SE9       30.21F
WHEATON        CLOUDY    43  37  81 E5        30.20S
MORRIS         CLOUDY    46  34  61 E10       30.18S
ALEXANDRIA     CLOUDY    41  30  65 E10       30.21S
ELBOW LAKE     FAIR      45  33  64 SE9       30.19S
WADENA         CLOUDY    37  28  70 SE9       30.20F
GLENWOOD       CLOUDY    43  32  65 E9        30.21F
APPLETON       CLOUDY    45  36  70 E5        30.19S
BENSON         CLOUDY    48  28  46 SE7       30.21S
ORTONVILLE     CLOUDY    43  34  70 SE7       30.18S
MADISON        CLOUDY    46  37  71 SE3       30.18S HAZE
WILLMAR        FAIR      46  36  66 E7        30.22S
$$
MNZ033>034-036-042>043-049>051-058-059-291600-
   Central Minnesota

CITY           SKY/WX    TMP DP  RH WIND       PRES   REMARKS
ST CLOUD       CLOUDY    40  32  73 E5        30.24S
SAUK CENTRE    FAIR      39  31  74 E9        30.22F
PAYNESVILLE    PTSUNNY   41  32  71 E6        30.22F
AITKIN         CLOUDY    39  28  65 E6        30.25R
PINE RIVER     CLOUDY    37  30  75 E7        30.26F
BRAINERD       CLOUDY    38  30  73 E6        30.24S
STAPLES        CLOUDY    37  28  70 SE5       30.22S
LONG PRAIRIE   FAIR      37  32  81 NE6       30.22F
LITTLE FALLS   CLOUDY    37  30  75 E5        30.23S
LITCHFIELD     CLOUDY    45  36  70 E6        30.22F
BUFFALO        CLOUDY    41  32  69 NE6       30.25S
MAPLE LAKE     CLOUDY    42  34  73 E3        30.25S
HUTCHINSON     SUNNY     46  37  73 E7        30.23S
$$
MNZ037-044-045-052-053-291600-
   East Central Minnesota

CITY           SKY/WX    TMP DP  RH WIND       PRES   REMARKS
PRINCETON      CLOUDY    39  32  75 E6        30.26S
MORA           CLOUDY    36  30  80 E3        30.28S
CAMBRIDGE      CLOUDY    39  28  65 NE5       30.24F
RUSH CITY      CLOUDY    38  31  77 NE5       30.27S
MOOSE LAKE     CLOUDY    36  32  87 NE6       30.27R
CLOQUET        CLOUDY    36  28  75 E13       30.29S
MCGREGOR       CLOUDY    36  32  87 E8        30.27S
$$
MNZ071>073-080-081-089-090-097-098-291600-
   Southwest Minnesota

CITY           SKY/WX    TMP DP  RH WIND       PRES   REMARKS
MONTEVIDEO     CLOUDY    45  36  70 SE8       30.20R
GRANITE FALLS  CLOUDY    46  37  71 E5        30.21S
CANBY          CLOUDY    44  38  78 CALM      30.19S
MARSHALL       CLOUDY    44  36  73 SE5       30.19S
REDWOOD FALLS  CLOUDY    47  36  65 VRB6      30.20R
OLIVIA         CLOUDY    46  36  66 E9        30.20S
PIPESTONE      CLOUDY    48  37  66 SE9       30.15S
WINDOM         PTSUNNY   46  39  76 E5        30.17F
WORTHINGTON    LGT RAIN  43  40  89 E7        30.16F
JACKSON        CLOUDY    43  37  81 E5        30.17F
TRACY          CLOUDY    45  38  78 SE6       30.19S
SLAYTON        CLOUDY    43  39  86 NE7       30.18S
$$
MNZ065>067-074>077-082>085-091>093-291600-
   South Central Minnesota

CITY           SKY/WX    TMP DP  RH WIND       PRES   REMARKS
MANKATO        CLOUDY    46  35  65 E13       30.22R
NEW ULM        CLOUDY    46  34  61 E5        30.21R
ST JAMES       CLOUDY    43  37  81 CALM      30.20F
FAIRMONT       CLOUDY    44  38  79 SE12      30.19S
GLENCOE        CLOUDY    47  41  77 E6        30.22R
FARIBAULT      CLOUDY    45  36  70 E6        30.24R
OWATONNA       CLOUDY    45  36  70 E9        30.22R
WASECA         CLOUDY    43  36  75 E10       30.23R
ALBERT LEA     CLOUDY    43  34  70 E12       30.20S
$$
MNZ078>079-086>088-094>096-291600-
   Southeast Minnesota

CITY           SKY/WX    TMP DP  RH WIND       PRES   REMARKS
ROCHESTER      CLOUDY    41  36  82 SE12      30.23R
RED WING       CLOUDY    45  34  65 CALM      30.24S
STANTON        CLOUDY    46  35  63 E5        30.23R
DODGE CENTER   CLOUDY    43  36  75 E10       30.22R
WINONA         CLOUDY    41  34  75 SE7       30.27S
AUSTIN         CLOUDY    43  36  75 SE9       30.21R
PRESTON        CLOUDY    40  34  79 E7        30.23S
$$
ABBREVIATIONS USED IN REMARKS
   TC - TEMPERATURES IN CELSIUS
  WCI - WIND CHILL INDEX
   HX - HEAT INDEX
  VSB - VISIBILITY
$$




USA.gov is the U.S. government's official web portal to all federal, state and local government web resources and services.